User: anonymous   Login
Location: Bonn
(50.7330°N, 7.1000°E)
Time: 07:56:23
(UTC+02:00)
Language:

Cosmos 1933 Rocket - Orbit

View from above orbital plane
View from above orbital plane
View from above satellite
View from above satellite

Ground track
Ground track

The orbit data is extracted from the following two-line orbital elements,

1 18959U 88020B   16179.19462766  .00000073  00000-0  60574-5 0  9992
2 18959  82.5378 242.5119 0015783 224.0665 135.9293 14.83283084527951
Epoch (UTC): 27 June 2016 04:40:15
Eccentricity: 0.0015783
inclination: 82.5378°
perigee height: 608 km
apogee height: 630 km
right ascension of ascending node: 242.5119°
argument of perigee: 224.0665°
revolutions per day: 14.83283084
mean anomaly at epoch: 135.9293°
orbit number at epoch: 52795

The dashed part of the orbit path shows where the satellite is in the earth's shadow,  

DLR